Regional Weather Roundup
Issued by NWS

Home | Current Version | Previous Version | Text Only | Print | Product List | Glossary Off
Versions: 1 2 3 4 5 6 7 8 9 10 11 12 13 14 15 16 17 18 19 20 21 22 23 24 25 26 27 28 29 30 31 32 33 34 35 36 37 38 39 40 41 42 43 44 45 46 47 48 49 50

000
ASUS43 KMKX 221400
RWRWI

WISCONSIN REGIONAL WEATHER ROUNDUP
NATIONAL WEATHER SERVICE MILWAUKEE/SULLIVAN WI
900 AM CDT SAT JUL 22 2017

NOTE: "FAIR" INDICATES FEW OR NO CLOUDS BELOW 12,000 FEET WITH NO
SIGNIFICANT WEATHER AND/OR OBSTRUCTIONS TO VISIBILITY.

WIZ001-002-006>008-014>016-023>028-221500-
NORTHWEST WISCONSIN

CITY           SKY/WX    TMP DP  RH WIND       PRES   REMARKS
SUPERIOR ARPT  NOT AVBL
ASHLAND        MOSUNNY   70  65  84 SW7       29.84F
HAYWARD        MOSUNNY   70  63  78 VRB3      29.86F
SIREN          CLOUDY    66  64  95 CALM      29.86F
CUMBERLAND     CLOUDY    68  63  83 NW9       29.87S
RICE LAKE      CLOUDY    70  65  83 NW7       29.88S
CHETEK         CLOUDY    70  67  89 N5        29.87R
LADYSMITH      SUNNY     71  65  83 N6        29.88S
EAU CLAIRE     CLOUDY    70  66  88 E3        29.85R
MENOMONIE      CLOUDY    70  66  87 NW6       29.87R
NEW RICHMOND   CLOUDY    71  66  84 N9        29.88R
OSCEOLA        CLOUDY    69  69 100 NW3       29.90F
$$

WIZ003>005-009-010-017-018-221500-
NORTH CENTRAL WISCONSIN

CITY           SKY/WX    TMP DP  RH WIND       PRES   REMARKS
MANITOWISH WTR PTSUNNY   70  68  94 W5        29.86R
ARBOR VITAE    PTSUNNY   72  69  91 W6        29.87R
WOODRUFF       PTSUNNY   72  69  91 W6        29.87R
RHINELANDER    CLOUDY    70  66  87 SW6       29.89R
EAGLE RIVER    CLOUDY    67  61  80 SW3       29.87R
LAND O LAKES   CLOUDY    70  65  82 SW3       29.89R
PHILLIPS       CLOUDY    69  67  93 CALM      29.87S
TOMAHAWK         N/A     67  65  93 CALM      29.89R
MEDFORD        CLOUDY    67  65  95 NW5       29.88R
MERRILL        CLOUDY    67  67 100 CALM      29.88R FOG
$$

WIZ029-030-035-036-043>047-221500-
CENTRAL WISCONSIN

CITY           SKY/WX    TMP DP  RH WIND       PRES   REMARKS
WAUSAU         CLOUDY    70  67  90 W6        29.85R
MOSINEE        FOG       66  66 100 NE3       29.88R VSB 3/4
MARSHFIELD     CLOUDY    70  67  90 N5        29.86R
STEVENS POINT  CLOUDY    65  65 100 E3        29.86S FOG
WAUPACA        CLOUDY    71  65  83 NW3       29.86R
WAUTOMA        CLOUDY    67  65  93 N6        29.85R FOG
WISC RAPIDS    CLOUDY    67  67 100 E5        29.86S FOG
CAMP DOUGLAS   CLOUDY    68  68 100 CALM      29.84R FOG
$$

WIZ011>013-019>022-031-037>040-048>050-221500-
NORTHEAST WISCONSIN

CITY           SKY/WX    TMP DP  RH WIND       PRES   REMARKS
ANTIGO         CLOUDY    67  64  91 CALM      29.88R
SHAWANO        CLOUDY    70  61  72 CALM      29.85S
OCONTO         CLOUDY    70  64  83 CALM      29.83S
STURGEON BAY     N/A     70  65  84 CALM      29.85S
GREEN BAY      CLOUDY    72  66  81 E3        29.85R
MANITOWOC      CLOUDY    70  64  83 E9        29.83S
APPLETON       CLOUDY    70  61  73 CALM      29.84R
CLINTONVILLE   CLOUDY    70  59  68 CALM      29.85F
OSHKOSH        CLOUDY    68  64  87 NW5       29.84R
$$

WIZ032>034-041-042-053>061-221500-
SOUTHWEST WISCONSIN

CITY           SKY/WX    TMP DP  RH WIND       PRES   REMARKS
LA CROSSE      CLOUDY    74  71  91 NE6       29.82R
SPARTA         CLOUDY    67  66  99 NE5       29.85S
VIROQUA          N/A     69  69 100 CALM      29.87R
BOSCOBEL       CLOUDY    74  71  91 CALM      29.84R
PRAIRIE DU CHI CLOUDY    71  70  95 SW3       29.83R
PLATTEVILLE    PTSUNNY   72  72 100 SW7       29.85R
$$

WIZ056-057-062-063-064-067-068-221500-
SOUTH CENTRAL WISCONSIN

CITY           SKY/WX    TMP DP  RH WIND       PRES   REMARKS
REEDSBURG      CLOUDY    68  68 100 CALM      29.83S FOG
BARABOO/DELLS  FOG       67  66  96 CALM      29.84R VSB 1/2
LONE ROCK      NOT AVBL
MINERAL POINT  MOSUNNY   72  72 100 W6        29.84R
MADISON        CLOUDY    72  69  90 VRB5      29.82R
MIDDLETON      CLOUDY    73  73 100 NW9       29.84R
WATERTOWN      CLOUDY    71  71 100 NW3       29.81R
MONROE         CLOUDY    72  68  88 SW9       29.84R
JANESVILLE     PTSUNNY   72  72 100 VRB6      29.80R
$$

WIZ051-052-058>065-066-070>072-221500-
SOUTHEAST WISCONSIN

CITY           SKY/WX    TMP DP  RH WIND       PRES   REMARKS
MILWAUKEE      CLOUDY    74  69  85 NW8       29.80R
WAUKESHA       PTSUNNY   70  66  88 W6        29.82R
MILWAUKEE/TIMM CLOUDY    72  66  83 N3        29.81S
RACINE         CLOUDY    73  69  87 W7        29.82R
KENOSHA        CLOUDY    73  69  87 NW6       29.81R
FOND DU LAC    CLOUDY    68  64  87 N3        29.85R FOG
SHEBOYGAN      CLOUDY    70  69  97 N5        29.82R FOG
WEST BEND      CLOUDY    64  64 100 CALM      29.82R FOG
JUNEAU         FOG       66  65  99 N3        29.84R VSB 3/4
$$

LSZ147-162-221500-
LAKE SUPERIOR

STATION/POSITION TIME  TEMP    WIND        PRES    WAVE
                       AIR SEA DIR/SP/G            HT/PER
                 (UTC) (F)     (DEG/KT/KT) (MB)    (FT/S)
W MID LAKE BUOY  1250   50 47   40/ 10/ 12 1009.5R   1/ 4
DEVILS ISLAND    1300   59     210/  5/  8 1010.2F
SAXON HARBOR     1330   66      20/  4/  4 1010.2R
$$

LMZ867-665-643>646-221500-
LAKE MICHIGAN

STATION/POSITION TIME  TEMP    WIND        PRES    WAVE
                       AIR SEA DIR/SP/G            HT/PER
                 (UTC) (F)     (DEG/KT/KT) (MB)    (FT/S)
CHAMBERS ISLAND  1340   70      CALM  /  2 1010.2R
S GREEN BAY BUOY 1330   70 73  350/  4/  4 1010.5R
N MID LAKE BUOY  1250   67 66   50/  2/  2 1011.0R   1
NORTHPORT PIER   1340   69     110/  6/  7 1010.5S
KEWAUNEE LAKESHO 1330   69      30/  3/  6 1009.4R
SHEBOYGAN LAKESH 1300   67      30/  1/  1 1009.0R
PORT WASHINGTON  1330   69     360/  1/  4 1010.2S
ATWATER BUOY     1209   68 68  350/  6/  8 1008.9F
MILWAUKEE LAKESH 1330   71     320/  5/  7   N/A
S MID LAKE BUOY  1250   71 70  320/  6/  6 1008.5R   2/ 5
KENOSHA   LAKESH 1300   72     290/  3/  6 1008.8
$$

TC  - TEMPERATURE IN CELSIUS
VSB - VISIBILITY IN STATUTE MILES
WCI - WIND CHILL INDEX
HX  - HEAT INDEX





USA.gov is the U.S. government's official web portal to all federal, state and local government web resources and services.